Location: *
(37.5724°S, 58.0067°E)
Time: 13:28:29
(UTC+00:00)

Lacrosse 5 - Pass Details

Date: 19 January 2021
Orbit: 715 x 724 km, 57.0° (Epoch: 03 March)

Event Time Altitude Azimuth Distance (km) Brightness Sun altitude
Exits shadow 20:45:28 41° 195° (SSW) 1,054 3.0 -31.9°
Drops below altitude 10° 20:49:36 10° 149° (SSE) 2,242 5.2 -31.8°
Sets 20:52:06 0° 142° (SE) 3,169 6.0 -31.8°
